LiveATC.Net - Listen to live air traffic control over the Internet!


ICAO: LKTB  IATA: BRQ   Airport: Brno-Turany Airport
City: Brno
Country: Czech Republic   Continent: Europe
LKTB METAR Weather: LKTB 150530Z 13003KT 080V160 0150 FG BKN001 08/07 Q1010 BECMG 1500 BR NSC
LKTB Flight Activity (FlightAware)

LKTB Gnd/Twr/Radar
Feed Status: UP   Listeners: 1
Listen in your browser - HTML5 player (in browser, HTML5)
Click here to listen with your own player (launches your MP3 player)
Archive Access: LKTB Gnd/Twr/Radar
FacilityFrequency
Brno Ground125.430
Brno Handling131.800
Brno Tower119.605
Praha Radar (Approach)127.350

NOTICE

Unauthorized use prohibited. See LiveATC.net Terms of Service


Airport/ARTCC Code
Frequency Search
(e.g., 124.400, 128.75)
Site-wide search
 


Browse Feeds
Top 50 Feeds
HF Oceanic Feeds
Coverage Map
Bad Weather Areas

LiveATC FAQ
Offer LiveATC feed
Contact LiveATC.net
Press Inquiries

LiveATC on iPhone
LiveATC on Android

Windows Phone
Windows 8/10

LiveATC Mobile
(Mobile browser)

ATC Audio Archives
Interesting Recordings

LiveATC Forums


Home Page
About LiveATC.net
Make a Donation
Terms of Use
Privacy Policy

Canadian Air Freqs

AIRMETs/SIGMETs

FAA Airport Status
NAS Status
Arrival Demand


Server Software By:
Icecast.org
Liquidsoap